| time (UTC) | temp F | wind direction | speed MPH | gust MPH | rain 1hr in | rain 24hr in | rain mn in | humidity % | barometer mb |
| 20260902063305 | 66 | 355 | 1.0 | 3.0 | 0.00 | 0.01 | 0.01 | 91 | 1020.0 |
| 20260902062805 | 66 | 334 | 1.0 | 3.0 | 0.00 | 0.01 | 0.01 | 91 | 1020.0 |
| 20260902062306 | 66 | 340 | 1.0 | 2.0 | 0.00 | 0.01 | 0.01 | 91 | 1020.0 |
| 20260902060305 | 66 | 334 | 1.0 | 3.0 | 0.01 | 0.01 | 0.01 | 91 | 1020.0 |
| 20260902053805 | 66 | 13 | 0.0 | 2.0 | 0.01 | 0.01 | 0.01 | 91 | 1020.0 |
| 20260902053305 | 67 | 345 | 1.0 | 2.0 | 0.01 | 0.01 | 0.01 | 91 | 1020.0 |
| 20260902051805 | 67 | 321 | 1.0 | 2.0 | 0.00 | 0.00 | 0.00 | 91 | 1020.0 |
| 20260902051305 | 67 | 347 | 0.0 | 2.0 | 0.00 | 0.00 | 0.00 | 91 | 1020.0 |
| 20260902045306 | 67 | 11 | 1.0 | 3.0 | 0.00 | 0.00 | 0.00 | 91 | 1020.0 |
| 20260902044805 | 67 | 349 | 1.0 | 2.0 | 0.00 | 0.00 | 0.00 | 90 | 1020.0 |
| 20260902044304 | 67 | 348 | 1.0 | 2.0 | 0.00 | 0.00 | 0.00 | 90 | 1020.0 |
| 20260902043805 | 67 | 348 | 1.0 | 2.0 | 0.00 | 0.00 | 0.00 | 90 | 1020.0 |
| 20260902042805 | 67 | 355 | 1.0 | 2.0 | 0.00 | 0.00 | 0.00 | 90 | 1020.0 |
| 20260902042308 | 68 | 8 | 1.0 | 2.0 | 0.00 | 0.00 | 0.00 | 91 | 1020.0 |
| 20260902041305 | 68 | 42 | 0.0 | 1.0 | 0.00 | 0.00 | 0.00 | 91 | 1020.0 |
| 20260902040805 | 68 | 100 | 0.0 | 1.0 | 0.00 | 0.00 | 0.00 | 91 | 1020.0 |
| 20260902035804 | 68 | 41 | 2.0 | 3.0 | 0.00 | 0.00 | 0.00 | 90 | 1020.0 |
| 20260902035305 | 68 | 35 | 1.0 | 3.0 | 0.00 | 0.00 | 0.00 | 90 | 1020.0 |
| 20260902034805 | 68 | 116 | 2.0 | 3.0 | 0.00 | 0.00 | 0.00 | 90 | 1020.0 |
| 20260902034305 | 68 | 83 | 2.0 | 3.0 | 0.00 | 0.00 | 0.00 | 90 | 1020.0 |
| 20260902031804 | 68 | 78 | 2.0 | 3.0 | 0.00 | 0.00 | 0.00 | 90 | 1021.0 |
| 20260902031305 | 68 | 94 | 2.0 | 5.0 | 0.00 | 0.00 | 0.00 | 90 | 1021.0 |
| 20260902030305 | 68 | 33 | 2.0 | 3.0 | 0.00 | 0.00 | 0.00 | 90 | 1021.0 |
| 20260902025805 | 68 | 77 | 2.0 | 3.0 | 0.00 | 0.00 | 0.00 | 90 | 1021.0 |
| 20260902025306 | 68 | 98 | 1.0 | 3.0 | 0.00 | 0.00 | 0.00 | 90 | 1021.0 |
| 20260902024304 | 68 | 35 | 0.0 | 2.0 | 0.00 | 0.00 | 0.00 | 89 | 1021.0 |
| 20260902023804 | 68 | 40 | 1.0 | 3.0 | 0.00 | 0.00 | 0.00 | 89 | 1021.0 |
| 20260902023305 | 68 | 27 | 1.0 | 3.0 | 0.00 | 0.00 | 0.00 | 89 | 1021.0 |
| 20260902022805 | 68 | 15 | 0.0 | 2.0 | 0.00 | 0.00 | 0.00 | 89 | 1021.0 |
| 20260902022306 | 68 | 5 | 0.0 | 1.0 | 0.00 | 0.00 | 0.00 | 89 | 1021.0 |
| 20260902021305 | 68 | 1 | 1.0 | 3.0 | 0.00 | 0.00 | 0.00 | 89 | 1021.0 |
| 20260902020804 | 68 | 25 | 1.0 | 3.0 | 0.00 | 0.00 | 0.00 | 89 | 1021.0 |
| 20260902020305 | 68 | 19 | 1.0 | 2.0 | 0.00 | 0.00 | 0.00 | 89 | 1021.0 |
| 20260902015306 | 68 | 5 | 1.0 | 3.0 | 0.00 | 0.00 | 0.00 | 89 | 1021.0 |
| 20260902014805 | 68 | 317 | 0.0 | 2.0 | 0.00 | 0.00 | 0.00 | 89 | 1021.0 |
| 20260902014305 | 68 | 315 | 1.0 | 2.0 | 0.00 | 0.00 | 0.00 | 88 | 1021.0 |
| 20260902013304 | 68 | 355 | 0.0 | 1.0 | 0.00 | 0.00 | 0.00 | 88 | 1021.0 |
| 20260902012805 | 69 | 11 | 1.0 | 2.0 | 0.00 | 0.00 | 0.00 | 88 | 1021.0 |
| 20260902012309 | 69 | 285 | 0.0 | 1.0 | 0.00 | 0.00 | 0.00 | 88 | 1021.0 |
| 20260902005805 | 69 | 259 | 0.0 | 3.0 | 0.00 | 0.00 | 0.00 | 89 | 1022.0 |
| 20260902005306 | 69 | 313 | 0.0 | 0.0 | 0.00 | 0.00 | 0.00 | 88 | 1022.0 |
| 20260902004805 | 69 | 272 | 0.0 | 1.0 | 0.00 | 0.00 | 0.00 | 88 | 1022.0 |
| 20260902004305 | 69 | 340 | 0.0 | 0.0 | 0.00 | 0.00 | 0.00 | 88 | 1022.0 |
| 20260902003804 | 69 | 340 | 0.0 | 0.0 | 0.00 | 0.00 | 0.00 | 88 | 1022.0 |
| 20260902003305 | 69 | 340 | 0.0 | 0.0 | 0.00 | 0.00 | 0.00 | 88 | 1022.0 |
| 20260902002804 | 69 | 340 | 0.0 | 0.0 | 0.00 | 0.00 | 0.00 | 88 | 1022.0 |
| 20260902002306 | 69 | 355 | 0.0 | 0.0 | 0.00 | 0.00 | 0.00 | 88 | 1022.0 |
| 20260902001805 | 69 | 355 | 0.0 | 0.0 | 0.00 | 0.00 | 0.00 | 88 | 1022.0 |
| 20260902001305 | 69 | 357 | 0.0 | 0.0 | 0.00 | 0.00 | 0.00 | 88 | 1022.0 |
| 20260902000305 | 69 | 31 | 0.0 | 0.0 | 0.00 | 0.00 | 0.00 | 88 | 1022.0 |
| 20260901234805 | 69 | 96 | 0.0 | 0.0 | 0.00 | 0.00 | 0.00 | 88 | 1022.0 |
| 20260901234304 | 69 | 78 | 0.0 | 1.0 | 0.00 | 0.00 | 0.00 | 88 | 1022.0 |
| 20260901231804 | 70 | 40 | 0.0 | 1.0 | 0.00 | 0.00 | 0.00 | 88 | 1022.0 |
| 20260901231305 | 70 | 50 | 0.0 | 1.0 | 0.00 | 0.00 | 0.00 | 88 | 1022.0 |
| 20260901222804 | 70 | 79 | 0.0 | 1.0 | 0.00 | 0.00 | 0.00 | 87 | 1022.0 |
| 20260901222306 | 70 | 57 | 0.0 | 2.0 | 0.00 | 0.00 | 0.00 | 87 | 1022.0 |
| 20260901221304 | 70 | 77 | 1.0 | 2.0 | 0.00 | 0.00 | 0.00 | 86 | 1022.0 |
| 20260901220805 | 70 | 73 | 1.0 | 2.0 | 0.00 | 0.00 | 0.00 | 86 | 1022.0 |
| 20260901215804 | 70 | 68 | 0.0 | 1.0 | 0.00 | 0.00 | 0.00 | 86 | 1022.0 |
| 20260901215306 | 70 | 79 | 0.0 | 2.0 | 0.00 | 0.00 | 0.00 | 86 | 1022.0 |
| 20260901214305 | 70 | 77 | 0.0 | 2.0 | 0.00 | 0.00 | 0.00 | 85 | 1022.0 |
| 20260901213805 | 70 | 86 | 0.0 | 2.0 | 0.00 | 0.00 | 0.00 | 85 | 1022.0 |
| 20260901213304 | 70 | 89 | 0.0 | 3.0 | 0.00 | 0.00 | 0.00 | 85 | 1022.0 |
| 20260901212805 | 70 | 83 | 0.0 | 2.0 | 0.00 | 0.00 | 0.00 | 84 | 1022.0 |
| 20260901212306 | 70 | 86 | 0.0 | 1.0 | 0.00 | 0.00 | 0.00 | 84 | 1022.0 |
| 20260901211805 | 70 | 119 | 0.0 | 1.0 | 0.00 | 0.00 | 0.00 | 84 | 1022.0 |
| 20260901210805 | 71 | 45 | 0.0 | 1.0 | 0.00 | 0.00 | 0.00 | 83 | 1022.0 |
| 20260901210306 | 71 | 70 | 0.0 | 2.0 | 0.00 | 0.00 | 0.00 | 83 | 1022.0 |
| 20260901204304 | 71 | 69 | 0.0 | 2.0 | 0.00 | 0.00 | 0.00 | 82 | 1022.0 |
| 20260901203805 | 71 | 88 | 0.0 | 1.0 | 0.00 | 0.00 | 0.00 | 82 | 1021.0 |
| 20260901202306 | 72 | 88 | 0.0 | 2.0 | 0.00 | 0.00 | 0.00 | 81 | 1021.0 |
| 20260901201804 | 72 | 88 | 0.0 | 2.0 | 0.00 | 0.00 | 0.00 | 81 | 1021.0 |
| 20260901201305 | 72 | 214 | 0.0 | 0.0 | 0.00 | 0.00 | 0.00 | 82 | 1021.0 |
| 20260901200804 | 72 | 214 | 0.0 | 1.0 | 0.00 | 0.00 | 0.00 | 81 | 1021.0 |
| 20260901200305 | 72 | 214 | 0.0 | 2.0 | 0.00 | 0.00 | 0.00 | 81 | 1021.0 |
| 20260901195805 | 73 | 214 | 1.0 | 2.0 | 0.00 | 0.00 | 0.00 | 81 | 1021.0 |
| 20260901195306 | 73 | 214 | 1.0 | 3.0 | 0.00 | 0.00 | 0.00 | 81 | 1021.0 |
| 20260901194805 | 73 | 223 | 1.0 | 3.0 | 0.00 | 0.00 | 0.00 | 80 | 1021.0 |
| 20260901194304 | 73 | 257 | 1.0 | 2.0 | 0.00 | 0.00 | 0.00 | 80 | 1021.0 |
| 20260901192804 | 73 | 267 | 1.0 | 3.0 | 0.00 | 0.00 | 0.00 | 80 | 1021.0 |
| 20260901192306 | 73 | 254 | 2.0 | 3.0 | 0.00 | 0.00 | 0.00 | 80 | 1021.0 |
| 20260901191804 | 73 | 241 | 3.0 | 9.0 | 0.00 | 0.00 | 0.00 | 80 | 1021.0 |
| 20260901190304 | 74 | 254 | 5.0 | 8.0 | 0.00 | 0.00 | 0.00 | 79 | 1021.0 |
| 20260901185804 | 74 | 269 | 4.0 | 7.0 | 0.00 | 0.00 | 0.00 | 79 | 1021.0 |
| 20260901183304 | 75 | 280 | 4.0 | 6.0 | 0.00 | 0.00 | 0.00 | 76 | 1021.0 |
| 20260901182804 | 75 | 266 | 3.0 | 6.0 | 0.00 | 0.00 | 0.00 | 77 | 1021.0 |
| 20260901182305 | 76 | 277 | 2.0 | 5.0 | 0.00 | 0.00 | 0.00 | 77 | 1021.0 |
| 20260901181304 | 76 | 258 | 3.0 | 6.0 | 0.00 | 0.00 | 0.00 | 76 | 1021.0 |
| 20260901180805 | 76 | 241 | 3.0 | 5.0 | 0.00 | 0.00 | 0.00 | 76 | 1021.0 |
| 20260901180304 | 76 | 284 | 2.0 | 5.0 | 0.00 | 0.00 | 0.00 | 77 | 1021.0 |
| 20260901175804 | 76 | 265 | 3.0 | 6.0 | 0.00 | 0.00 | 0.00 | 76 | 1021.0 |
| 20260901175305 | 76 | 259 | 3.0 | 5.0 | 0.00 | 0.00 | 0.00 | 77 | 1021.0 |
| 20260901174805 | 76 | 267 | 3.0 | 6.0 | 0.00 | 0.00 | 0.00 | 77 | 1021.0 |
| 20260901174304 | 76 | 261 | 5.0 | 7.0 | 0.00 | 0.00 | 0.00 | 77 | 1021.0 |
| 20260901173805 | 76 | 206 | 3.0 | 5.0 | 0.00 | 0.00 | 0.00 | 76 | 1021.0 |
| 20260901173305 | 76 | 243 | 5.0 | 7.0 | 0.00 | 0.00 | 0.00 | 76 | 1021.0 |
| 20260901165805 | 76 | 203 | 5.0 | 9.0 | 0.00 | 0.00 | 0.00 | 78 | 1021.0 |
| 20260901165306 | 76 | 223 | 4.0 | 7.0 | 0.00 | 0.00 | 0.00 | 75 | 1021.0 |
| 20260901162306 | 76 | 246 | 5.0 | 7.0 | 0.00 | 0.00 | 0.00 | 76 | 1021.0 |
| 20260901161804 | 76 | 190 | 5.0 | 6.0 | 0.00 | 0.00 | 0.00 | 78 | 1021.0 |
| 20260901155306 | 77 | 170 | 3.0 | 7.0 | 0.00 | 0.00 | 0.00 | 76 | 1022.0 |
| 20260901154804 | 77 | 192 | 5.0 | 8.0 | 0.00 | 0.00 | 0.00 | 76 | 1022.0 |
| 20260901154304 | 78 | 221 | 5.0 | 8.0 | 0.00 | 0.00 | 0.00 | 75 | 1022.0 |
| 20260901151805 | 77 | 137 | 5.0 | 7.0 | 0.00 | 0.00 | 0.00 | 72 | 1022.0 |
| 20260901151305 | 78 | 153 | 5.0 | 9.0 | 0.00 | 0.00 | 0.00 | 71 | 1022.0 |
| 20260901150806 | 78 | 153 | 5.0 | 7.0 | 0.00 | 0.00 | 0.00 | 73 | 1022.0 |
| 20260901144806 | 78 | 211 | 5.0 | 10.0 | 0.00 | 0.00 | 0.00 | 74 | 1022.0 |
| 20260901143305 | 78 | 176 | 5.0 | 9.0 | 0.00 | 0.00 | 0.00 | 75 | 1022.0 |
| 20260901142806 | 77 | 159 | 4.0 | 9.0 | 0.00 | 0.00 | 0.00 | 76 | 1022.0 |
| 20260901142306 | 77 | 238 | 4.0 | 7.0 | 0.00 | 0.00 | 0.00 | 76 | 1022.0 |
| 20260901141806 | 77 | 203 | 5.0 | 7.0 | 0.00 | 0.00 | 0.00 | 77 | 1022.0 |
| 20260901141305 | 78 | 169 | 4.0 | 7.0 | 0.00 | 0.00 | 0.00 | 76 | 1022.0 |
| 20260901140806 | 77 | 253 | 4.0 | 7.0 | 0.00 | 0.00 | 0.00 | 75 | 1022.0 |
| 20260901140305 | 78 | 238 | 3.0 | 7.0 | 0.00 | 0.00 | 0.00 | 74 | 1022.0 |
| 20260901135806 | 78 | 245 | 3.0 | 7.0 | 0.00 | 0.00 | 0.00 | 75 | 1022.0 |
| 20260901134306 | 78 | 224 | 3.0 | 6.0 | 0.00 | 0.00 | 0.00 | 74 | 1022.0 |
| 20260901131805 | 77 | 241 | 5.0 | 9.0 | 0.00 | 0.00 | 0.00 | 76 | 1022.0 |
| 20260901131306 | 78 | 275 | 4.0 | 7.0 | 0.00 | 0.00 | 0.00 | 76 | 1022.0 |
| 20260901130805 | 77 | 243 | 5.0 | 9.0 | 0.00 | 0.00 | 0.00 | 75 | 1022.0 |
| 20260901130306 | 76 | 275 | 5.0 | 7.0 | 0.00 | 0.00 | 0.00 | 78 | 1022.0 |
| 20260901125806 | 77 | 246 | 4.0 | 7.0 | 0.00 | 0.00 | 0.00 | 77 | 1022.0 |
| 20260901124806 | 76 | 243 | 5.0 | 9.0 | 0.00 | 0.00 | 0.00 | 77 | 1022.0 |
| 20260901124307 | 76 | 232 | 5.0 | 9.0 | 0.00 | 0.00 | 0.00 | 76 | 1022.0 |
| 20260901123805 | 76 | 261 | 5.0 | 9.0 | 0.00 | 0.00 | 0.00 | 77 | 1022.0 |
| 20260901123306 | 76 | 262 | 6.0 | 9.0 | 0.00 | 0.00 | 0.00 | 75 | 1022.0 |
| 20260901122805 | 77 | 253 | 4.0 | 8.0 | 0.00 | 0.00 | 0.00 | 75 | 1022.0 |
| 20260901122306 | 76 | 203 | 3.0 | 6.0 | 0.00 | 0.00 | 0.00 | 76 | 1022.0 |
| 20260901120305 | 76 | 266 | 4.0 | 7.0 | 0.00 | 0.00 | 0.00 | 78 | 1022.0 |
| 20260901115805 | 77 | 264 | 4.0 | 8.0 | 0.00 | 0.00 | 0.00 | 78 | 1022.0 |
| 20260901115306 | 76 | 247 | 4.0 | 7.0 | 0.00 | 0.00 | 0.00 | 79 | 1022.0 |
| 20260901114805 | 76 | 246 | 5.0 | 7.0 | 0.00 | 0.00 | 0.00 | 77 | 1022.0 |
| 20260901114305 | 76 | 264 | 3.0 | 6.0 | 0.00 | 0.00 | 0.00 | 77 | 1022.0 |
| 20260901113805 | 76 | 267 | 3.0 | 7.0 | 0.00 | 0.00 | 0.00 | 79 | 1022.0 |
| 20260901113305 | 75 | 262 | 6.0 | 9.0 | 0.00 | 0.00 | 0.00 | 81 | 1022.0 |
| 20260901112806 | 74 | 264 | 4.0 | 9.0 | 0.00 | 0.00 | 0.00 | 83 | 1022.0 |
| 20260901112306 | 75 | 280 | 3.0 | 8.0 | 0.00 | 0.00 | 0.00 | 81 | 1022.0 |
| 20260901105305 | 75 | 244 | 5.0 | 7.0 | 0.00 | 0.00 | 0.00 | 82 | 1022.0 |
| 20260901104806 | 74 | 257 | 5.0 | 8.0 | 0.00 | 0.00 | 0.00 | 81 | 1022.0 |
| 20260901104305 | 75 | 265 | 3.0 | 7.0 | 0.00 | 0.00 | 0.00 | 81 | 1022.0 |
| 20260901103805 | 74 | 253 | 4.0 | 7.0 | 0.00 | 0.00 | 0.00 | 82 | 1022.0 |
| 20260901102306 | 74 | 241 | 3.0 | 7.0 | 0.00 | 0.00 | 0.00 | 84 | 1022.0 |
| 20260901101806 | 74 | 248 | 4.0 | 6.0 | 0.00 | 0.00 | 0.00 | 82 | 1022.0 |
| 20260901095805 | 74 | 234 | 5.0 | 7.0 | 0.00 | 0.00 | 0.00 | 82 | 1022.0 |
| 20260901093805 | 73 | 249 | 3.0 | 5.0 | 0.00 | 0.00 | 0.00 | 83 | 1022.0 |
| 20260901093305 | 73 | 244 | 2.0 | 5.0 | 0.00 | 0.00 | 0.00 | 83 | 1022.0 |
| 20260901092306 | 72 | 238 | 2.0 | 3.0 | 0.00 | 0.00 | 0.00 | 87 | 1022.0 |
| 20260901091805 | 71 | 252 | 2.0 | 3.0 | 0.00 | 0.00 | 0.00 | 87 | 1022.0 |
| 20260901085805 | 72 | 252 | 3.0 | 5.0 | 0.00 | 0.00 | 0.00 | 85 | 1022.0 |
| 20260901085306 | 72 | 218 | 2.0 | 3.0 | 0.00 | 0.00 | 0.00 | 85 | 1022.0 |
| 20260901084805 | 73 | 240 | 3.0 | 3.0 | 0.00 | 0.00 | 0.00 | 85 | 1022.0 |
| 20260901084305 | 73 | 236 | 1.0 | 3.0 | 0.00 | 0.00 | 0.00 | 85 | 1022.0 |
| 20260901083805 | 73 | 40 | 1.0 | 3.0 | 0.00 | 0.00 | 0.00 | 83 | 1022.0 |
| 20260901083305 | 73 | 134 | 1.0 | 3.0 | 0.00 | 0.00 | 0.00 | 83 | 1022.0 |
| 20260901082805 | 73 | 115 | 0.0 | 2.0 | 0.00 | 0.00 | 0.00 | 85 | 1022.0 |
| 20260901075805 | 69 | 75 | 0.0 | 1.0 | 0.00 | 0.00 | 0.00 | 90 | 1022.0 |
| 20260901075307 | 69 | 23 | 0.0 | 1.0 | 0.00 | 0.00 | 0.00 | 90 | 1022.0 |
| 20260901074805 | 69 | 23 | 1.0 | 1.0 | 0.00 | 0.00 | 0.00 | 90 | 1022.0 |
| 20260901074306 | 68 | 25 | 1.0 | 2.0 | 0.00 | 0.00 | 0.00 | 90 | 1022.0 |
| 20260901071805 | 66 | 22 | 1.0 | 2.0 | 0.00 | 0.00 | 0.00 | 89 | 1021.0 |
| 20260901071304 | 66 | 22 | 2.0 | 3.0 | 0.00 | 0.00 | 0.00 | 88 | 1021.0 |
| 20260901070805 | 66 | 19 | 1.0 | 2.0 | 0.00 | 0.00 | 0.00 | 88 | 1021.0 |